Regional Weather Roundup
Issued by NWS

Home | Current Version | Previous Version | Text Only | Print | Product List | Glossary Off
Versions: 1 2 3 4 5 6 7 8 9 10 11 12 13 14 15 16 17 18 19 20 21 22 23 24 25 26 27

000
ASUS45 KSLC 211610
RWRUT

UTAH REGIONAL WEATHER ROUNDUP
NATIONAL WEATHER SERVICE SALT LAKE CITY UT
900 AM MST TUE FEB 21 2017

UTZ001>011-023>025-211700-

NORTHERN UTAH

CITY           SKY/WX    TMP DP  RH WIND       PRES   REMARKS
BRIGHAM CITY     N/A     50  38  64 W7        30.03F
HILL AFB       MOSUNNY   51  37  58 S24G31    30.04S
LOGAN          CLOUDY    55  37  50 SW22G36   30.00S
OGDEN          MOSUNNY   52  38  58 S21G31    30.03S
SALT LAKE CITY MOSUNNY   54  38  54 S24G37    30.04S
TOOELE VALLEY  SUNNY     54  37  54 S36G43    30.03F
WENDOVER       SUNNY     54  34  47 SW26      30.01S
HEBER CITY     CLOUDY    50  32  50 SW18G25   30.11F
WEST JORDAN    SUNNY     55  46  72 SE33G45   30.06S

$$

UTZ011>015-024>027-211700-

CENTRAL/NORTHEAST UTAH

CITY           SKY/WX    TMP DP  RH WIND       PRES   REMARKS
PROVO AIRPORT  MOSUNNY   54  38  54 S18G26    30.14S
MOAB/CANYONLAN PTSUNNY   45  39  79 E5        30.24R
DELTA          SUNNY     46  37  71 S24G32    30.16S
PRICE          CLOUDY    41  37  86 E7        30.25R
RICHFIELD      SUNNY     55  34  44 SW18      30.21F
ROOSEVELT      CLOUDY    41  34  75 CALM      30.22S
VERNAL         SUNNY     44  35  70 CALM      30.18S

$$

UTZ013>016-019>022-027-211700-

SOUTHERN UTAH

CITY           SKY/WX    TMP DP  RH WIND       PRES   REMARKS
BRYCE CANYON   FOG       36  35  96 SE10      30.35R VSB 1/4 WCI  28
CEDAR CITY     PTSUNNY   47  39  74 SW16      30.24S
MILFORD        MOSUNNY   48  40  73 SW20      30.22F
ST GEORGE      MOSUNNY   50  45  83 SW6       30.29S
HANKSVILLE     SUNNY     46  39  76 CALM      30.26S
KANAB          CLOUDY    48  43  81 S3        30.38R
BLANDING       CLOUDY    43  34  71 SE5       30.45R

$$

REGIONAL REPORTS     COLORADO/ARIZONA

CITY           SKY/WX    TMP DP  RH WIND       PRES   REMARKS
CRAIG, CO      CLOUDY    47  31  53 SW13      30.21R
GRAND JUNCTION CLOUDY    46  37  71 E6        30.27S
RIFLE, CO      CLOUDY    45  36  70 CALM      30.27S
MONTROSE, CO   CLOUDY    47  32  56 E8        30.33F
CORTEZ, CO     SUNNY     45  38  76 CALM      30.38S
COLORADO CITY    N/A     50  43  76 SE6       30.36R
PAGE, AZ       SUNNY     50  37  61 NE3       30.31S
GRAND CANYON   MOSUNNY   40  38  93 CALM      30.41R
KINGMAN, AZ    PTSUNNY   52  41  66 SE3       30.35R
FLAGSTAFF, AZ  SUNNY     46  40  79 W3        30.43R

$$

REGIONAL REPORTS    NEVADA/IDAHO/WYOMING

CITY           SKY/WX    TMP DP  RH WIND       PRES   REMARKS
LAS VEGAS, NV  CLOUDY    63  36  36 S9G17     30.21R
ELY, NY        SUNNY     44  32  62 S31G43    30.09S
ELKO, NV       CLOUDY    45  32  60 W12       29.99R
POCATELLO, ID  PTSUNNY   46  36  68 SW12      29.96S
BURLEY, ID     MOSUNNY   46  34  62 W6        29.94R
FORT BRIDGER,    N/A     43  31  63 SW15      30.09S
EVANSTON, WY   SUNNY     40  30  67 SW28      30.06S WCI  29
ROCK SPRINGS,  MOSUNNY   44  28  53 SW16      30.07R
KEMMERER, WY     N/A     37  32  81 SW21G29   30.05S WCI  27

$$




USA.gov is the U.S. government's official web portal to all federal, state and local government web resources and services.